CW5629 Weather Reports


Display with metric or nautical units.
time (UTC)temp
F
wind
direction
speed
MPH
gust
MPH
rain 1hr
in
rain 24hr
in
rain mn
in
humidity
%
barometer
mb
20260504024113 52 113 0.0 0.0 0.00 0.04 0.00 96 1011.2
20260504023127 52 113 0.0 0.0 0.00 0.04 0.00 96 1011.2
20260504022114 52 113 0.0 0.0 0.00 0.04 0.00 96 1011.2
20260504021127 52 113 0.0 0.0 0.00 0.04 0.00 96 1011.3
20260504020114 52 113 0.0 0.0 0.00 0.04 0.00 96 1011.2
20260504015142 52 113 0.0 0.0 0.00 0.04 0.00 96 1011.2
20260504014114 52 113 0.0 0.0 0.00 0.04 0.00 96 1011.2
20260504013147 52 113 0.0 0.0 0.00 0.04 0.00 96 1011.2
20260504012112 52 113 0.0 0.0 0.00 0.04 0.00 96 1011.2
20260504011125 52 113 0.0 0.0 0.00 0.04 0.00 96 1011.1
20260504010134 52 113 0.0 0.0 0.00 0.04 0.00 96 1011.1
20260504005121 51 113 0.0 0.0 0.00 0.04 0.00 96 1011.1
20260504004135 51 113 0.0 0.0 0.00 0.04 0.00 96 1011.1
20260504003126 51 113 0.0 0.0 0.00 0.04 0.00 96 1011.0
20260504002112 51 113 0.0 0.0 0.00 0.04 0.00 96 1011.0
20260504001125 51 113 0.0 0.0 0.00 0.04 0.00 96 1011.0
20260504000111 51 113 0.0 0.0 0.00 0.04 0.00 96 1011.0
20260503235124 51 113 0.0 0.0 0.00 0.04 0.00 95 1011.0
20260503234117 51 113 0.0 0.0 0.00 0.04 0.00 95 1011.0
20260503233151 51 113 0.0 0.0 0.00 0.04 0.00 96 1011.0
20260503232115 51 113 0.0 0.0 0.00 0.04 0.00 96 1011.0
20260503231127 50 113 0.0 0.0 0.00 0.04 0.01 96 1010.9
20260503230119 50 113 0.0 0.0 0.00 0.04 0.01 95 1010.8
20260503225130 50 113 0.0 0.0 0.00 0.04 0.01 95 1010.8
20260503224117 50 113 0.0 0.0 0.00 0.04 0.01 95 1010.7
20260503223131 50 113 0.0 0.0 0.00 0.04 0.01 95 1010.7
20260503222124 50 113 0.0 0.0 0.00 0.04 0.01 95 1010.7
20260503221157 50 113 0.0 0.0 0.00 0.04 0.01 95 1010.7
20260503220122 50 113 0.0 0.0 0.00 0.04 0.01 94 1010.7
20260503215135 51 113 0.0 0.0 0.00 0.04 0.01 94 1010.6
20260503214148 51 113 0.0 0.0 0.00 0.04 0.01 94 1010.4
20260503213135 52 113 0.0 0.0 0.00 0.04 0.01 94 1010.4
20260503212121 52 113 0.0 0.0 0.00 0.04 0.01 95 1010.3
20260503211135 51 113 0.0 0.0 0.00 0.04 0.01 94 1010.2
20260503210148 51 113 0.0 0.0 0.00 0.04 0.01 93 1010.2
20260503205112 51 113 0.0 0.0 0.00 0.04 0.01 93 1010.1
20260503204125 52 113 0.0 0.0 0.00 0.04 0.01 93 1010.0
20260503203138 52 113 0.0 0.0 0.00 0.04 0.01 93 1009.9
20260503202123 53 113 0.0 0.0 0.00 0.04 0.01 93 1009.8
20260503201137 53 113 0.0 0.0 0.00 0.04 0.01 93 1009.7
20260503200122 53 113 0.0 0.0 0.00 0.04 0.01 93 1009.6
20260503195113 53 113 0.0 0.0 0.00 0.04 0.01 92 1009.5
20260503194123 53 113 0.0 0.0 0.00 0.04 0.01 92 1009.3
20260503193137 54 113 0.0 0.0 0.00 0.04 0.01 91 1009.1
20260503192123 54 113 0.0 0.0 0.00 0.04 0.01 91 1009.2
20260503191114 55 113 0.0 0.0 0.00 0.04 0.01 90 1009.1
20260503190127 55 113 0.0 1.0 0.00 0.04 0.01 89 1009.0
20260503185138 56 116 0.0 1.0 0.00 0.04 0.01 89 1008.9
20260503184124 56 116 0.0 1.0 0.00 0.04 0.01 88 1008.9
20260503183117 56 117 0.0 1.0 0.00 0.04 0.01 88 1008.8
20260503182124 57 116 0.0 0.0 0.00 0.04 0.01 87 1008.8
20260503181121 58 117 0.0 1.0 0.00 0.04 0.01 86 1008.7
20260503180134 58 108 0.0 1.0 0.00 0.04 0.01 87 1008.7
20260503175140 58 110 0.0 1.0 0.00 0.04 0.01 84 1008.8
20260503174113 60 107 0.0 1.0 0.00 0.04 0.01 84 1008.7
20260503173119 60 117 0.0 4.0 0.04 0.04 0.01 83 1008.7
20260503172112 60 122 0.0 2.0 0.04 0.04 0.01 81 1008.6
20260503171125 61 116 0.0 2.0 0.04 0.16 0.01 81 1008.6
20260503170159 60 103 0.0 1.0 0.04 0.16 0.01 83 1008.6
20260503160136 61 120 0.0 1.0 0.00 0.47 0.00 85 1008.7
20260503150116 57 115 0.0 1.0 0.00 1.10 0.00 90 1008.9
20260503140113 57 127 0.0 1.0 0.00 1.85 0.00 91 1009.2
20260503131123 56 125 0.0 1.0 0.00 1.93 0.00 91 1009.4
20260503130115 56 120 0.0 1.0 0.00 1.93 0.00 90 1009.4
20260503120114 57 110 0.0 1.0 0.00 1.97 0.00 91 1009.3
20260503110130 56 116 0.0 2.0 0.00 1.97 0.00 90 1009.5
20260503100115 56 115 0.0 0.0 0.00 1.97 0.00 92 1009.6
20260503090134 54 110 0.0 1.0 0.00 1.97 0.00 95 1009.5
20260503081114 54 108 0.0 0.0 0.00 1.97 0.00 95 1009.6
20260503080118 54 108 0.0 0.0 0.00 1.97 0.00 95 1009.5
20260503072116 53 106 0.0 0.0 0.00 1.97 0.00 96 1009.5
20260503071129 53 106 0.0 0.0 0.00 1.97 0.00 96 1009.5
20260503070115 53 106 0.0 0.0 0.00 1.97 0.00 96 1009.3
20260503060114 50 106 0.0 0.0 0.00 1.97 0.00 96 1009.1
20260503054112 50 106 0.0 0.0 0.00 1.97 0.00 96 1009.0
20260503053125 50 106 0.0 0.0 0.00 1.97 0.00 96 1008.9
20260503052136 50 106 0.0 0.0 0.00 1.97 0.00 96 1008.8
20260503051123 50 106 0.0 0.0 0.00 1.97 0.00 96 1009.0
20260503050136 50 106 0.0 0.0 0.00 1.97 0.00 96 1008.9
20260503045122 50 106 0.0 0.0 0.00 1.97 0.00 96 1008.9
20260503044128 50 106 0.0 0.0 0.00 1.97 0.00 96 1008.8
20260503043121 50 106 0.0 0.0 0.00 1.97 0.00 96 1008.7
20260503042136 50 106 0.0 0.0 0.00 1.97 0.00 96 1008.8
20260503041120 51 106 0.0 0.0 0.00 1.97 0.00 96 1008.9
20260503040132 51 106 0.0 1.0 0.00 1.97 0.00 96 1008.9
20260503035117 51 117 0.0 0.0 0.00 1.97 0.00 96 1009.0
20260503034157 51 117 0.0 0.0 0.00 1.97 0.00 96 1009.0
20260503033120 51 116 0.0 0.0 0.00 1.97 0.00 96 1009.1
20260503032135 51 117 0.0 0.0 0.00 1.97 0.00 96 1009.1
20260503031118 51 117 0.0 0.0 0.00 1.97 0.00 96 1009.2
20260503030131 51 117 0.0 0.0 0.00 1.97 0.00 96 1009.3
20260503025122 51 117 0.0 0.0 0.00 1.97 0.00 96 1009.2